Find Kosmos-648

NORAD ID: 7272 Int'l Des: 1974-024 Owner: GUKOSR Country: SU operational
LEOCIRCULAR

現在のビュー

3D地球を読み込み中...

Kosmos-648について

説明を読み込み中...

次回通過

Passes for default location (London). Set your location on the main map for personalized predictions.

高度履歴

Loading altitude history...

軌道要素

1 7272U 74024H 26149.90851512 -.00000013 00000-0 16329-4 0 9998
2 7272 74.0182 316.1725 0033148 353.4205 160.9286 12.50376360378113
Epoch: May 29, 2026 • Age: 17 hours

現在のステータス

高度 1491.0 km
速度 7.11 km/s
衛星直下点 1.19°N, 18.5°E
タイプ other

Most Searched